Provincetown, Massachusetts, United States (02657)
Lat: 42.06N, Lon: 70.18W
Wx Zone: MAZ022
Local Info
Past Weather Observations for Today

NOTE: This archive is for the closest National Weather Service station to Provincetown. Information may differ from the station used for current weather conditions.

Click here for Long-term Archive

Time Weather Temperature Dewpoint Humidity Pressure Winds Precip Visibility
22:15
Mostly Cloudy
55°F / 13°C 1°F / -17°C 11% 29.53 in
(1000 mb)
SW 10.4 mph
(SW 17 kph)
- 10SM
21:55
Mostly Cloudy
55°F / 13°C 1°F / -17°C 11% 29.56 in
(1001 mb)
SW 11.5 mph
(SW 19 kph)
- 10SM
21:35
Mostly Cloudy
54°F / 12°C 1°F / -17°C 12% 29.56 in
(1001 mb)
SW 12.7 mph
(SW 20 kph)
- 10SM
21:15
Overcast
55°F / 13°C 1°F / -17°C 11% 29.56 in
(1001 mb)
SW 12.7 mph
(SW 20 kph)
- 10SM
20:55
Overcast
55°F / 13°C 1°F / -17°C 11% 29.56 in
(1001 mb)
SSW 11.5 mph
(SSW 19 kph)
- 10SM
20:35
Overcast
54°F / 12°C °F / -18°C 11% 29.59 in
(1002 mb)
SSW 13.8 mph
(SSW 22 kph)
- 10SM
20:15
Partly Cloudy
54°F / 12°C °F / -18°C 11% 29.59 in
(1002 mb)
SSW 12.7 mph
(SSW 20 kph)
- 10SM
19:55
Clear
54°F / 12°C °F / -18°C 11% 29.59 in
(1002 mb)
SSW 11.5 mph
(SSW 19 kph)
- 10SM
19:35
Clear
54°F / 12°C °F / -18°C 11% 29.59 in
(1002 mb)
SSW 13.8 mph
(SSW 22 kph)
- 10SM
19:15
Partly Cloudy
54°F / 12°C °F / -18°C 11% 29.59 in
(1002 mb)
SSW 11.5 mph
(SSW 19 kph)
- 10SM
18:55
Clear
54°F / 12°C °F / -18°C 11% 29.59 in
(1002 mb)
SSW 11.5 mph
(SSW 19 kph)
- 10SM
18:35
Clear
54°F / 12°C °F / -18°C 11% 29.59 in
(1002 mb)
SSW 10.4 mph
(SSW 17 kph)
- 10SM
18:15
Clear
54°F / 12°C 1°F / -17°C 12% 29.62 in
(1003 mb)
SW 11.5 mph
(SW 19 kph)
- 10SM
17:55
Clear
55°F / 13°C 1°F / -17°C 11% 29.59 in
(1002 mb)
SW 12.7 mph
(SW 20 kph)
- 10SM
17:35
Clear
55°F / 13°C 1°F / -17°C 11% 29.59 in
(1002 mb)
SW 11.5 mph
(SW 19 kph)
- 10SM
17:15
Clear
55°F / 13°C 1°F / -17°C 11% 29.59 in
(1002 mb)
SW 9.2 mph
(SW 15 kph)
- 10SM
16:55
Clear
55°F / 13°C 1°F / -17°C 11% 29.59 in
(1002 mb)
SW 10.4 mph
(SW 17 kph)
- 10SM
16:35
Clear
57°F / 14°C 3°F / -16°C 11% 29.59 in
(1002 mb)
SW 10.4 mph
(SW 17 kph)
- 10SM
16:15
Clear
59°F / 15°C 3°F / -16°C 10% 29.59 in
(1002 mb)
SW 9.2 mph
(SW 15 kph)
- 10SM
15:55
Clear
61°F / 16°C 5°F / -15°C 11% 29.59 in
(1002 mb)
SW 12.7 mph
(SW 20 kph)
- 10SM
15:35
Clear
63°F / 17°C 7°F / -14°C 11% 29.59 in
(1002 mb)
SW 11.5 mph
(SW 19 kph)
- 10SM
15:15
Clear
61°F / 16°C 5°F / -15°C 11% 29.62 in
(1003 mb)
SW 9.2 mph
(SW 15 kph)
- 10SM
14:55
Clear
61°F / 16°C 5°F / -15°C 11% 29.62 in
(1003 mb)
SW 6.9 mph
(SW 11 kph)
- 10SM
14:35
Clear
61°F / 16°C 7°F / -14°C 11% 29.62 in
(1003 mb)
SW 9.2 mph
(SW 15 kph)
- 10SM
14:15
Clear
64°F / 18°C 7°F / -14°C 10% 29.62 in
(1003 mb)
SW 10.4 mph
(SW 17 kph)
- 10SM
13:55
Clear
64°F / 18°C 9°F / -13°C 11% 29.62 in
(1003 mb)
SW 10.4 mph
(SW 17 kph)
- 10SM
13:35
Clear
64°F / 18°C 9°F / -13°C 11% 29.65 in
(1004 mb)
SW 11.5 mph
(SW 19 kph)
- 10SM
13:15
Clear
64°F / 18°C 9°F / -13°C 11% 29.65 in
(1004 mb)
SW 10.4 mph
(SW 17 kph)
- 10SM
12:55
Clear
64°F / 18°C 9°F / -13°C 11% 29.65 in
(1004 mb)
SW 9.2 mph
(SW 15 kph)
- 10SM
12:35
Clear
64°F / 18°C 9°F / -13°C 11% 29.65 in
(1004 mb)
SW 8.1 mph
(SW 13 kph)
- 10SM
12:15
Clear
63°F / 17°C 7°F / -14°C 11% 29.65 in
(1004 mb)
SSW 11.5 mph
(SSW 19 kph)
- 10SM
11:55
Clear
63°F / 17°C 7°F / -14°C 11% 29.68 in
(1005 mb)
SSW 10.4 mph
(SSW 17 kph)
- 10SM
11:35
Clear
61°F / 16°C 5°F / -15°C 11% 29.68 in
(1005 mb)
SSW 12.7 mph
(SSW 20 kph)
- 10SM
11:15
Clear
61°F / 16°C 5°F / -15°C 11% 29.68 in
(1005 mb)
SSW 15 mph
(SSW 24 kph)
- 10SM
10:55
Clear
59°F / 15°C 3°F / -16°C 10% 29.71 in
(1006 mb)
SSW 12.7 mph
(SSW 20 kph)
- 10SM
10:35
Clear
57°F / 14°C 3°F / -16°C 11% 29.71 in
(1006 mb)
SSW 10.4 mph
(SSW 17 kph)
- 10SM
10:15
Clear
57°F / 14°C 3°F / -16°C 11% 29.71 in
(1006 mb)
SSW 11.5 mph
(SSW 19 kph)
- 10SM
09:55
Clear
57°F / 14°C 1°F / -17°C 10% 29.71 in
(1006 mb)
SSW 12.7 mph
(SSW 20 kph)
- 10SM
09:35
Clear
55°F / 13°C 1°F / -17°C 11% 29.74 in
(1007 mb)
W 10.4 mph
(W 17 kph)
- 10SM
09:15
Clear
55°F / 13°C 1°F / -17°C 11% 29.74 in
(1007 mb)
W 11.5 mph
(W 19 kph)
- 10SM
08:55
Clear
55°F / 13°C 1°F / -17°C 11% 29.74 in
(1007 mb)
W 12.7 mph
(W 20 kph)
- 10SM
08:35
Clear
55°F / 13°C 1°F / -17°C 11% 29.74 in
(1007 mb)
W 10.4 mph
(W 17 kph)
- 10SM
08:15
Clear
54°F / 12°C °F / -18°C 11% 29.74 in
(1007 mb)
W 10.4 mph
(W 17 kph)
- 10SM
07:55
Clear
54°F / 12°C °F / -18°C 11% 29.74 in
(1007 mb)
W 10.4 mph
(W 17 kph)
- 10SM
07:35
Clear
52°F / 11°C °F / -18°C 11% 29.77 in
(1008 mb)
W 9.2 mph
(W 15 kph)
- 10SM
07:15
Clear
52°F / 11°C -2°F / -19°C 10% 29.77 in
(1008 mb)
W 8.1 mph
(W 13 kph)
- 10SM
06:55
Clear
50°F / 10°C -2°F / -19°C 11% 29.77 in
(1008 mb)
W 9.2 mph
(W 15 kph)
- 10SM
06:35
Clear
48°F / 9°C -4°F / -20°C 11% 29.77 in
(1008 mb)
W 11.5 mph
(W 19 kph)
- 10SM
06:15
Clear
48°F / 9°C -2°F / -19°C 12% 29.77 in
(1008 mb)
W 8.1 mph
(W 13 kph)
- 10SM
05:55
Clear
48°F / 9°C -2°F / -19°C 12% 29.74 in
(1007 mb)
W 11.5 mph
(W 19 kph)
- 10SM
05:35
Clear
50°F / 10°C -2°F / -19°C 11% 29.74 in
(1007 mb)
NW 10.4 mph
(NW 17 kph)
- 10SM
05:15
Clear
50°F / 10°C -2°F / -19°C 11% 29.74 in
(1007 mb)
NW 9.2 mph
(NW 15 kph)
- 10SM
04:55
Partly Cloudy
50°F / 10°C -2°F / -19°C 11% 29.74 in
(1007 mb)
NW 10.4 mph
(NW 17 kph)
- 10SM
04:35
Mostly Cloudy
50°F / 10°C -2°F / -19°C 11% 29.74 in
(1007 mb)
NW 12.7 mph
(NW 20 kph)
- 10SM
04:15
Partly Cloudy
50°F / 10°C -2°F / -19°C 11% 29.74 in
(1007 mb)
NW 9.2 mph
(NW 15 kph)
- 10SM
03:55
Overcast
50°F / 10°C -2°F / -19°C 11% 29.74 in
(1007 mb)
NW 11.5 mph
(NW 19 kph)
- 10SM
03:35
Mostly Cloudy
48°F / 9°C -2°F / -19°C 12% 29.74 in
(1007 mb)
NW 10.4 mph
(NW 17 kph)
- 10SM
03:15
Partly Cloudy
48°F / 9°C -4°F / -20°C 11% 29.74 in
(1007 mb)
NW 9.2 mph
(NW 15 kph)
- 10SM
02:55
Partly Cloudy
48°F / 9°C -2°F / -19°C 12% 29.74 in
(1007 mb)
NW 10.4 mph
(NW 17 kph)
- 10SM
02:35
Mostly Cloudy
48°F / 9°C -2°F / -19°C 12% 29.74 in
(1007 mb)
NW 10.4 mph
(NW 17 kph)
- 10SM
02:15
Mostly Cloudy
48°F / 9°C -2°F / -19°C 12% 29.74 in
(1007 mb)
NW 9.2 mph
(NW 15 kph)
- 10SM
01:55
Overcast
50°F / 10°C -2°F / -19°C 11% 29.74 in
(1007 mb)
NW 12.7 mph
(NW 20 kph)
- 10SM
01:35
Overcast
50°F / 10°C -2°F / -19°C 11% 29.74 in
(1007 mb)
NW 11.5 mph
(NW 19 kph)
- 10SM
01:15
Overcast
50°F / 10°C -2°F / -19°C 11% 29.74 in
(1007 mb)
NW 11.5 mph
(NW 19 kph)
- 10SM
00:55
Overcast
52°F / 11°C -2°F / -19°C 10% 29.74 in
(1007 mb)
NW 11.5 mph
(NW 19 kph)
- 10SM
00:35
Overcast
52°F / 11°C -2°F / -19°C 10% 29.74 in
(1007 mb)
NW 10.4 mph
(NW 17 kph)
- 10SM
00:15
Overcast
52°F / 11°C -2°F / -19°C 10% 29.74 in
(1007 mb)
NNW 13.8 mph
(NNW 22 kph)
- 10SM
Time Weather Temperature Dewpoint Humidity Pressure Winds Precip Visibility


Weather for websites

WeatherForYou.com, LLC is not responsible for any damages or problems caused by this service. Current weather conditions are obtained from the closest station including government and personal stations which may have varying degrees of accuracy. Weather forecasts are derived from the NOAA NDFD. Like all things, this site belongs to Jesus Christ... He just trusts me to maintain it. If you have any questions or comments email webmaster@weatherforyou.com

Copyright © 2014, WeatherForYou.com LLC. All rights reserved.